Weather in Mestre

Italy     45°29′51″N   12°14′54″E
temp.,
°C
wind,
m/s
gust,
m/s
humid.,
%
clouds,
%
prec.,
mm/h
press.,
hPa
HPBL,
m
17 may, mon
mon1723:00+16wnw1288100 0.4 100580
02:00+15ssw1193100 1.2 100374
05:00+14nne119596 1.6 100252
08:00+16wsw348795 4.5 1002162
11:00+13ne71184100 4.8 1007809
14:00+13ne348230 5.1 1008312
17:00+17se11585 0.0 1009727
20:00+14sse45766 0.0 1011146
18 may, tue
tue1823:00+13s34715 0.0 1012122
02:00+12nw11770 0.0 101349
05:00+11nnw11810 0.0 101476
08:00+13nne22780 0.0 1015195
11:00+16se337458 0.0 1015788
14:00+17se557123 0.1 1013726
17:00+17se4473100 0.4 1012508
20:00+15e358394 2.1 1011210
19 may, wed
wed1923:00+13n5792100 0.4 1012191
02:00+11ne81482100 1.8 1014465
05:00+10n46880 0.0 1015178
08:00+12n22780 0.0 1017230
11:00+16sse11601 0.0 1017774
14:00+17sse43584 0.0 1016933
17:00+17s3355100 0.0 1014632
20:00+15s3571100 0.0 1013186
20 may, thu
thu2023:00+14nw3476100 0.1 1014101
02:00+13n3678100 0.6 1013142
05:00+12nnw1175100 0.0 101344
08:00+13nnw2271100 0.0 1016151
11:00+18sw22535 0.0 1017689
14:00+19sse44529 0.0 10171323
17:00+19s335575 0.3 1017781
20:00+15nw23794 2.3 1019124
21 may, fri
fri2123:00+14nw22660 0.0 102026
02:00+12nne34803 0.1 102170
05:00+11ne35740 0.0 102198
08:00+13ne45665 0.0 1022237
11:00+17ene32555 0.0 1022609
14:00+18sse336610 0.1 1020914
17:00+18se54568 0.1 1018620
20:00+16se4665100 0.1 1018177